Hourly Data Report for October 04, 2017

All times are specified in Local Standard Time (LST). Add 1 hour to adjust for Daylight Saving Time where and when it is observed.

BRANDON A
MANITOBA

49°54'36.000" N
99°57'08.000" W
409.30 m
5010481
71140
YBR

Download Data

Hourly Data (October 2017)
Hourly Data Report for October 4, 2017
Temp Definition
°C
Dew Point Temp Definition
°C
Rel Hum Definition
%
Wind Dir Definition
10's deg

Wind Spd Definition
km/h
Visibility Definition
km
Stn Press Definition
kPa
Hmdx Definition


Wind Chill Definition


Weather Definition


TIME
00:00 Legend Double Dagger 7.0 4.8 86 30 24 24.1 97.31     Cloudy
01:00 Legend Double Dagger 6.0 4.5 90 30 25 24.1 97.39     LegendNANA
02:00 Legend Double Dagger 5.7 3.8 88 29 28 24.1 97.43     LegendNANA
03:00 Legend Double Dagger 5.0 3.0 87 28 21 24.1 97.44     Mostly Cloudy
04:00 Legend Double Dagger 4.4 2.6 88 29 21 24.1 97.46     LegendNANA
05:00 Legend Double Dagger 3.6 2.1 90 28 21 24.1 97.46     LegendNANA
06:00 Legend Double Dagger 4.4 2.0 84 27 27 24.1 97.47     Cloudy
07:00 Legend Double Dagger 4.2 2.1 86 26 25 24.1 97.45     LegendNANA
08:00 Legend Double Dagger 5.4 2.6 83 26 26 24.1 97.45     LegendNANA
09:00 Legend Double Dagger 6.5 2.4 75 27 36 24.1 97.46     Mainly Clear
10:00 Legend Double Dagger 8.6 2.1 64 28 35 24.1 97.45     LegendNANA
11:00 Legend Double Dagger 9.7 2.0 58 27 40 24.1 97.41     LegendNANA
12:00 Legend Double Dagger 10.8 2.0 54 27 29 24.1 97.36     Mainly Clear
13:00 Legend Double Dagger 12.4 1.8 48 25 32 24.1 97.25     LegendNANA
14:00 Legend Double Dagger 13.2 2.2 47 24 31 24.1 97.18     LegendNANA
15:00 Legend Double Dagger 13.5 2.2 46 24 32 24.1 97.12     Clear
16:00 Legend Double Dagger 12.3 3.0 53 24 34 24.1 97.08     LegendNANA
17:00 Legend Double Dagger 11.3 3.1 57 25 27 24.1 97.08     LegendNANA
18:00 Legend Double Dagger 8.8 2.6 65 24 16 24.1 97.02     Clear
19:00 Legend Double Dagger 4.7 1.4 79 23 15 24.1 97.07     LegendNANA
20:00 Legend Double Dagger 3.2 0.7 84 32 8 24.1 97.13     LegendNANA
21:00 Legend Double Dagger 1.5 -0.6 86 28 10 24.1 97.14     Clear
22:00 Legend Double Dagger 1.0 -0.9 87 30 9 24.1 97.15     LegendNANA
23:00 Legend Double Dagger -0.2 -1.1 93 26 11 24.1 97.17   -4 LegendNANA

Notes on Data Quality.

Legend

  • E = Estimated
  • M = Missing
  • NA = Not Available
  • ‡ = Partner data that is not subject to review by the National Climate Archives
Date modified: